Date String (YYYY-MM-DD hh:mm:ss) UTC,Instrument flags,Ambient pressure (hPa),Sample flow (lpm),Bypass flow (lpm),Sample temperature (°C),Ambient temperature (°C),ASC tube jacket temperature (°C),LED temperature (°C),Box temperature (°C),Sample RH (%),Span deviation,Mass concentration (μg/m³),Mass concentration (μg/m³),Mass concentration (μg/m³)
DateTimeUTC,F1_M11,P_M11,Q1_M11,Q2_M11,T1_M11,T2_M11,T3_M11,T4_M11,T5_M11,U1_M11,ZSPAN_M11,X0_M11,X2_M11,X1_M11
2022-07-04 09:00:00,,0823.7,5.00,0.00,30.0,29.0,00.0,38.7,31.9,23.1,0000.0,0005.51,0003.14,0002.52
2022-07-04 09:01:00,,0823.7,5.00,0.00,30.0,29.0,00.0,38.7,31.9,23.1,0000.0,0005.50,0003.15,0002.55
2022-07-04 09:02:00,,0823.7,5.01,0.00,30.0,29.0,00.0,38.7,31.9,23.1,0000.0,0005.65,0003.19,0002.58
2022-07-04 09:03:00,,0823.7,5.01,0.00,30.0,29.1,00.0,38.7,32.0,23.0,0000.0,0005.57,0003.18,0002.60
2022-07-04 09:04:00,,0823.7,5.01,0.00,30.1,28.8,00.0,38.7,31.9,23.0,0000.0,0005.51,0003.22,0002.62
2022-07-04 09:05:00,,0823.7,5.00,0.00,30.0,28.0,00.0,38.7,31.8,23.0,0000.0,0005.48,0003.24,0002.64
2022-07-04 09:06:00,,0823.7,5.00,0.00,30.0,27.6,00.0,38.6,31.7,23.1,0000.0,0005.45,0003.24,0002.66
2022-07-04 09:07:00,,0823.7,5.00,0.00,29.9,27.6,00.0,38.6,31.6,23.3,0000.0,0005.47,0003.24,0002.66
2022-07-04 09:08:00,,0823.7,5.01,0.00,29.8,27.6,00.0,38.6,31.5,23.4,0000.0,0005.38,0003.21,0002.65
2022-07-04 09:09:00,,0823.7,5.00,0.00,29.8,27.7,00.0,38.6,31.5,23.5,0000.0,0005.48,0003.23,0002.65
2022-07-04 09:10:00,,0823.7,5.00,0.00,29.7,27.9,00.0,38.6,31.5,23.2,0000.0,0005.57,0003.23,0002.63
2022-07-04 09:11:00,,0823.7,5.00,0.00,29.7,28.0,00.0,38.6,31.5,23.5,0000.0,0005.60,0003.23,0002.63
2022-07-04 09:12:00,,0823.7,5.00,0.00,29.7,28.1,00.0,38.6,31.5,23.4,0000.0,0005.55,0003.23,0002.63
2022-07-04 09:13:00,,0823.7,5.00,0.00,29.7,28.2,00.0,38.6,31.6,23.3,0000.0,0005.51,0003.21,0002.61
2022-07-04 09:14:00,,0823.7,5.00,0.00,29.8,28.4,00.0,38.6,31.6,23.1,0000.0,0005.56,0003.22,0002.61
2022-07-04 09:15:00,,0823.7,4.99,0.00,29.8,28.4,00.0,38.6,31.6,23.4,0000.0,0005.08,0003.17,0002.61
2022-07-04 09:16:00,,0823.7,5.00,0.00,29.8,28.5,00.0,38.6,31.7,23.5,0000.0,0004.93,0003.15,0002.62
2022-07-04 09:17:00,,0823.6,5.00,0.00,29.8,28.6,00.0,38.6,31.7,23.5,0000.0,0004.86,0003.14,0002.62
2022-07-04 09:18:00,,0823.6,4.98,0.00,29.8,28.7,00.0,38.6,31.7,23.4,0000.0,0004.98,0003.17,0002.62
2022-07-04 09:19:00,,0823.7,5.00,0.00,29.8,28.7,00.0,38.6,31.8,23.0,0000.0,0004.90,0003.16,0002.61
2022-07-04 09:20:00,,0823.7,5.01,0.00,29.9,28.8,00.0,38.6,31.8,22.8,0000.0,0004.94,0003.15,0002.60
2022-07-04 09:21:00,,0823.7,5.01,0.00,29.9,28.8,00.0,38.6,31.8,22.9,0000.0,0004.86,0003.16,0002.59
2022-07-04 09:22:00,,0823.6,5.01,0.00,29.9,28.8,00.0,38.6,31.8,23.1,0000.0,0004.94,0003.17,0002.59
2022-07-04 09:23:00,,0823.6,5.01,0.00,29.9,28.9,00.0,38.7,31.8,22.9,0000.0,0004.98,0003.18,0002.58
2022-07-04 09:24:00,,0823.6,5.00,0.00,29.9,28.9,00.0,38.7,31.9,22.7,0000.0,0005.13,0003.18,0002.60
2022-07-04 09:25:00,,0823.6,5.00,0.00,30.0,29.0,00.0,38.7,31.9,22.5,0000.0,0005.18,0003.17,0002.59
2022-07-04 09:26:00,,0823.6,5.00,0.00,30.0,29.0,00.0,38.7,31.9,22.6,0000.0,0005.10,0003.16,0002.57
2022-07-04 09:27:00,,0823.6,4.99,0.00,30.0,29.0,00.0,38.7,32.0,22.9,0000.0,0005.13,0003.16,0002.57
2022-07-04 09:28:00,,0823.6,5.00,0.00,30.0,29.1,00.0,38.7,32.0,22.6,0000.0,0005.23,0003.17,0002.56
2022-07-04 09:29:00,,0823.6,5.01,0.00,30.1,28.9,00.0,38.7,31.9,22.5,0000.0,0005.13,0003.15,0002.53
2022-07-04 09:30:00,,0823.6,5.00,0.00,30.0,28.0,00.0,38.7,31.8,22.6,0000.0,0005.18,0003.16,0002.53
2022-07-04 09:31:00,,0823.6,5.00,0.00,30.0,27.6,00.0,38.7,31.7,22.1,0000.0,0005.23,0003.16,0002.52
2022-07-04 09:32:00,,0823.6,5.00,0.00,29.9,27.6,00.0,38.7,31.6,21.7,0000.0,0005.14,0003.13,0002.48
2022-07-04 09:33:00,,0823.6,5.00,0.00,29.8,27.6,00.0,38.6,31.5,22.0,0000.0,0005.94,0003.08,0002.43
2022-07-04 09:34:00,,0823.6,5.00,0.00,29.8,27.7,00.0,38.6,31.5,22.9,0000.0,0006.38,0003.09,0002.40
2022-07-04 09:35:00,,0823.7,4.99,0.00,29.8,27.9,00.0,38.6,31.5,23.3,0000.0,0006.35,0003.11,0002.39
2022-07-04 09:36:00,,0823.7,5.00,0.00,29.8,28.0,00.0,38.6,31.5,23.6,0000.0,0006.19,0003.12,0002.39
2022-07-04 09:37:00,,0823.7,5.01,0.00,29.8,28.1,00.0,38.6,31.6,23.8,0000.0,0006.31,0003.15,0002.39
2022-07-04 09:38:00,,0823.7,5.00,0.00,29.8,28.2,00.0,38.6,31.6,23.6,0000.0,0006.41,0003.18,0002.39
2022-07-04 09:39:00,,0823.7,5.00,0.00,29.8,28.3,00.0,38.6,31.6,23.6,0000.0,0006.89,0003.20,0002.38
2022-07-04 09:40:00,,0823.7,5.01,0.00,29.8,28.4,00.0,38.6,31.6,23.7,0000.0,0007.79,0003.25,0002.39
2022-07-04 09:41:00,,0823.7,5.00,0.00,29.8,28.5,00.0,38.6,31.7,23.9,0000.0,0007.87,0003.28,0002.41
2022-07-04 09:42:00,,0823.7,5.00,0.00,29.8,28.6,00.0,38.6,31.7,23.9,0000.0,0007.91,0003.33,0002.44
2022-07-04 09:43:00,,0823.7,5.00,0.00,29.8,28.6,00.0,38.6,31.7,23.9,0000.0,0008.01,0003.39,0002.50
2022-07-04 09:44:00,,0823.7,4.99,0.00,29.9,28.7,00.0,38.6,31.8,24.0,0000.0,0007.73,0003.42,0002.56
2022-07-04 09:45:00,,0823.7,5.01,0.00,29.9,28.8,00.0,38.6,31.8,23.9,0000.0,0007.43,0003.44,0002.60
2022-07-04 09:46:00,,0823.7,4.99,0.00,29.9,28.8,00.0,38.6,31.8,23.9,0000.0,0007.48,0003.45,0002.63
2022-07-04 09:47:00,,0823.8,5.00,0.00,29.9,28.9,00.0,38.7,31.8,24.1,0000.0,0008.00,0003.50,0002.66
2022-07-04 09:48:00,,0823.8,5.01,0.00,29.9,28.9,00.0,38.7,31.9,24.2,0000.0,0009.92,0003.54,0002.68
2022-07-04 09:49:00,,0823.8,5.00,0.00,30.0,28.9,00.0,38.7,31.9,24.2,0000.0,0010.10,0003.56,0002.70
2022-07-04 09:50:00,,0823.9,5.02,0.00,30.0,29.0,00.0,38.7,31.9,24.2,0000.0,0010.22,0003.60,0002.72
2022-07-04 09:51:00,,0823.9,5.00,0.00,30.0,29.0,00.0,38.7,31.9,24.2,0000.0,0009.83,0003.60,0002.74
2022-07-04 09:52:00,,0824.0,5.00,0.00,30.0,29.0,00.0,38.7,31.9,24.1,0000.0,0009.94,0003.59,0002.73
2022-07-04 09:53:00,,0824.0,5.00,0.00,30.1,29.1,00.0,38.8,32.0,24.0,0000.0,0010.14,0003.59,0002.74
2022-07-04 09:54:00,,0824.0,5.00,0.00,30.1,29.1,00.0,38.8,32.0,24.1,0000.0,0010.17,0003.61,0002.74
2022-07-04 09:55:00,,0824.0,4.99,0.00,30.1,28.5,00.0,38.7,31.9,24.2,0000.0,0010.26,0003.62,0002.75
2022-07-04 09:56:00,,0823.9,5.01,0.00,30.0,27.8,00.0,38.7,31.8,24.3,0000.0,0010.33,0003.66,0002.76
2022-07-04 09:57:00,,0824.0,5.00,0.00,30.0,27.5,00.0,38.7,31.7,24.5,0000.0,0010.34,0003.70,0002.77
2022-07-04 09:58:00,,0824.0,5.00,0.00,29.9,27.5,00.0,38.7,31.5,24.8,0000.0,0010.61,0003.68,0002.77
2022-07-04 09:59:00,,0824.1,5.00,0.00,29.8,27.6,00.0,38.6,31.5,25.0,0000.0,0009.29,0003.66,0002.77
